Location: Buckeye Ditch
(40.9104°N, 122.9517°W)
Time: 14:52:19
(UTC+00:00)

Transit 2A - Pass Details

Date: 24 May 2025
Orbit: 599 x 947 km, 66.7° (Epoch: 15 June)

Event Time Altitude Azimuth Distance (km) Brightness Sun altitude
Rises 12:49:23 0° 174° (S) 3,062 8.9 -0.4°
Reaches altitude 10° 12:52:14 10° 158° (SSE) 2,091 8.2 0.1°
Maximum altitude 12:55:44 21° 110° (ESE) 1,440 8.1 0.7°
Drops below altitude 10° 12:59:05 10° 61° (ENE) 1,992 10.7 1.3°
Sets 13:01:43 0° 45° (NE) 2,874 10.7 1.7°
